DECAYED

STARLINK-1057, 44762 (Decayed)

Orbit data source: Space-Track

STARLINK-1057, 44762 was a payload satellite owned by SpaceX/Seattle (US) in LEO that was launched on Mon, 11 Nov 2019 UTC via an FALCON 9 launch vehicle from the Air Force Eastern Test Range (AFETR). Payload-class satellites include a variety of spacecraft equipped with specific instruments for various scientific and technological missions. These include communications satellites like Starlink; space stations such as the ISS; scientific satellites like the Hubble; Earth observation satellites from companies like Planet Labs, Umbra, and HawkEye 360; GPS; miniature CubeSats for education and research; and military/defense satellites.

Not visible in the next 10 days
Identifier
44762, 2019-074BB
Orbit
Decayed
Country
Flag of USUS
Related business
Manufacturer
SpaceX/Seattle
Mission
Decayed Commercial Communications
Bus & Motor
STARLINK, Unknown motor
Mass
260 kg wet, ~248 kg dry
Launch date (UTC)
2019-11-11 (6 years ago)
Launch vehicle
FALCON 9
Launch site
Air Force Eastern Test Range (AFETR)
Object type
Payload
Rocket body
Debris
Shape & HBR
Box + 1 Pan, 10.1 m
Radar Cross Section
13.562 m², Large (>1 m²)

Expand to show TLE details & history
Last TLE update: 2 weeks ago

TLE from 2 weeks ago
0 STARLINK-1057
1 44762U 19074BB  25277.00347522  .11099493  12468-4  37869-3 0  9997
2 44762  53.0286 123.2321 0004696 258.2987 101.7535 16.44390718325789
Epoch: 2025-10-04T00:05Z
TLE epoch observation values (Epoch: 2025-10-04T00:05:00.259Z)
Latitude
0.00006°
Longitude
109.0394°
Altitude
155.704 km
Speed
7.814 km/s
True Right ascension
08h 12m 55s
True Declination
0° 00' 00"
Sunlit
Object was in daylight at epoch
Visualization orbit readout
Latitude
Unknown
Longitude
Unknown
Altitude
Unknown
Speed
Unknown
Apparent Right ascension
Unknown
Apparent Declination
Unknown
Sunlit
N/A
Visualization observer readout
Local Sidereal Time
12:59:16
Azimuth
Unknown
Elevation
Unknown
Doppler factor
Unknown
Orbital elements
Apogee altitude
157.507 km
Perigee altitude
151.372 km
Semi-major axis
6,532.576 km
Eccentricity
0.00047
Inclination
53.0286°
RAAN
123.2321°
Arg. of periapsis
258.2987°
True anomaly
101.80618°
Mean anomaly
101.7535°
Eccentric anomaly
101.77984°
Mean motion
4.11071 °/min
Orbital period
87.58 mins
BSTAR
0.00037869
Loading maneuver chart data...
Computing Atmospheric mass density...

Documentation

Showing up to 5 results
|